Regional Weather Roundup
Issued by NWS

Home | Current Version | Previous Version | Graphics & Text | Print | Product List | Glossary On
Versions: 1 2 3 4 5 6 7 8 9 10 11 12 13 14 15 16 17 18 19 20 21 22 23 24 25 26 27 28 29 30 31 32 33 34 35 36 37 38 39 40 41 42 43 44 45 46 47 48 49 50
000
ASUS45 KPSR 280110
RWRAZ

ARIZONA REGIONAL HOURLY WEATHER ROUNDUP
NATIONAL WEATHER SERVICE PHOENIX AZ
600 PM MST SUN JUL 27 2014

NOTE: FAIR INDICATES FEW OR NO CLOUDS BELOW 12,000 FEET WITH NO
SIGNIFICANT WEATHER AND/OR OBSTRUCTIONS TO VISIBILITY.

AZZ001>003-036-280200-
NORTHWEST ARIZONA

CITY           SKY/WX    TMP DP  RH WIND       PRES   REMARKS
BULLHEAD CITY  MOSUNNY  102  52  18 S6        29.84R HX 100
KINGMAN        MOSUNNY   91  52  26 SW15      30.06R
$$

AZZ004>008-015-016-018-280200-
NORTH CENTRAL ARIZONA

CITY           SKY/WX    TMP DP  RH WIND       PRES   REMARKS
GRAND CANYON   LGT RAIN  70  54  56 S8        30.31R
WILLIAMS       MOSUNNY   81  48  32 NW13      30.35R
PRESCOTT       MOSUNNY   86  52  30 W10       30.16R
FLAGSTAFF      LGT RAIN  69  52  54 W10       30.36R
PAYSON         CLOUDY    64  59  82 NE20G30   30.25R THUNDER
PAGE           SUNNY     97  47  18 N9        30.06S
$$

AZZ009>014-017-280200-
NORTHEAST ARIZONA

CITY           SKY/WX    TMP DP  RH WIND       PRES   REMARKS
WINSLOW        CLOUDY    77  51  40 S37G49    30.16R
SAINT JOHNS    CLOUDY    77  50  38 S8        30.23R
WINDOW ROCK    CLOUDY    74  49  41 S9        30.38R
SHOW LOW       CLOUDY    63  52  67 S7        30.34F
$$

AZZ023-280200-
GREATER PHOENIX AREA

CITY           SKY/WX    TMP DP  RH WIND       PRES   REMARKS
PHOENIX        MOSUNNY  102  54  20 W14G21    29.84F HX 100
BUCKEYE          N/A     99  57  25 SW7       29.87S
GLENDALE       MOSUNNY  102  55  21 S15G22    29.87R HX 101
LUKE AFB       NOT AVBL
DEER VALLEY    SUNNY     99  54  22 W10G18    29.87S
SCOTTSDALE     SUNNY     99  56  23 SW10      29.89S
MESA-FALCON    MOSUNNY  100  55  22 W12       29.87S
MESA-GATEWAY   MOSUNNY  100  57  23 W10       29.88F
CHANDLER       MOSUNNY  N/A N/A N/A NW12      29.86
$$

AZZ027-028-280200-
SOUTHWEST MARICOPA COUNTY AND PINAL COUNTY

CITY           SKY/WX    TMP DP  RH WIND       PRES   REMARKS
CASA GRANDE    SUNNY    100  57  23 W13G24    29.89F
$$

AZZ503-504-507>509-280200-
SOUTHEAST ARIZONA

CITY           SKY/WX    TMP DP  RH WIND       PRES   REMARKS
TUCSON         PTSUNNY   96  55  25 NW9G21    29.98F
DAVIS-MONTHAN  MOSUNNY   94  56  27 NW10      29.97F
RYAN FIELD       N/A     97  57  26 W13       29.97F
NOGALES        MOSUNNY   89  60  37 SW16      30.08S
SIERRA VISTA   MOSUNNY   86  50  28 NW16      30.15R
DOUGLAS        PTSUNNY   91  50  24 SW8       30.08R
SAFFORD        LGT RAIN  89  59  36 W18G28    29.96R
$$

AZZ020-021-025-026-031-280200-
SOUTHWEST ARIZONA

CITY           SKY/WX    TMP DP  RH WIND       PRES   REMARKS
YUMA           SUNNY    100  60  26 W5        29.82S HX 100
$$

CAZ031-033-041-043-047-048-061-280200-
SOUTHERN CALIFORNIA

CITY           SKY/WX    TMP DP  RH WIND       PRES   REMARKS
DOWNTOWN L.A.  SUNNY     80  60  50 W7        29.92F
L.A. AIRPORT   PTSUNNY   73  63  70 W10       29.94F
SAN DIEGO      PTSUNNY   76  65  68 NW13      29.94S
BURBANK        SUNNY     89  54  30 S6        29.92F
ONTARIO        PTSUNNY   94  54  25 W9        29.93S
RIVERSIDE      MOSUNNY   95  52  23 W10       29.92F
PALM SPRINGS   CLOUDY    99  63  30 SE5       29.83F HX 101
EL CENTRO NAS  MOSUNNY   99  62  29 SE9       29.80F HX 100
IMPERIAL       MOSUNNY   99  61  28 SE8       29.80F
BLYTHE           N/A    N/A N/A N/A MISG      29.81F
NEEDLES        SUNNY    103  54  19 SW7       29.85R HX 101
$$

NVZ020-UTZ003-280200-
SOUTHERN NEVADA-UTAH

CITY           SKY/WX    TMP DP  RH WIND       PRES   REMARKS
LAS VEGAS      CLOUDY    91  56  30 SW15      29.92S THUNDER
SALT LAKE CITY MOSUNNY   95  39  14 NW12      30.05F
$$

NMZ009-TXZ055-280200-
NEW MEXICO-WEST TEXAS

CITY           SKY/WX    TMP DP  RH WIND       PRES   REMARKS
ALBUQUERQUE    PTSUNNY   75  54  47 N15G22    30.24R
EL PASO        PTSUNNY   94  48  20 S3        30.03S
$$


........................KEY........................
SKY/WX - SKY CONDITION/WEATHER
TMP    - TEMPERATURE IN FAHRENHEIT
DP     - DEW POINT IN FAHRENHEIT
RH     - RELATIVE HUMIDITY IN PERCENT
WIND   - DIRECTION AND SPEED IN MILES PER HOUR (MPH)
VRB    - VARIABLE WIND DIRECTION
PRES   - MEAN SEA LEVEL PRESSURE IN INCHES OF MERCURY
         F - FALLING PRESSURE   R - RISING PRESSURE
         S - STEADY PRESSURE
VSB    - VISIBILITY IN MILES
HX     - HEAT INDEX IN FAHRENHEIT
WCI    - WIND CHILL INDEX IN FAHRENHEIT
TC     - TEMPERATURE IN CELSIUS WHICH IS ALSO KNOWN AS
         TEMPERATURE IN CENTIGRADE
AFB    - AIR FORCE BASE
         LUKE AFB IS LUKE AIR FORCE BASE
         DAVIS-MONTHAN IS DAVIS-MONTHAN AIR FORCE BASE
NAS    - NAVAL AIR STATION
         EL CENTRO NAS IS EL CENTRO NAVAL AIR STATION
N/A    - NOT AVAILABLE



USA.gov is the U.S. government's official web portal to all federal, state and local government web resources and services.